Flag for Indonesia Weather past 2 weeks in Makassar, South Sulawesi, Indonesia

Now
88 °F

Scattered clouds.


Feels Like: 100 °F
Forecast: 77 / 89 °F
Wind: 7 mph from West

Location: Ujung Pandang / Hasanuddin

Current Time: May 24, 2015 at 6:14:20 PM

Latest Report: May 24, 2015 at 5:30 PM


Visibility: 6 mi

Pressure: 29.83 "Hg

Humidity: 70%

Dew point: 77 °F

Location of MakassarLocation

Historic Weather in Makassar — Graph

°F

Makassar temperature yesterday

Maximum temperature yesterday: 91 °F (at 11:30 AM)
Minimum temperature yesterday: 75 °F (at 1:30 AM)
Average temperature yesterday: 83 °F

Past Weeks' High & Low Weather Summary

 TemperatureHumidityPressure
High93 °F (May 10, 2:00 PM)100% (May 9, 9:00 PM)29.95 "Hg (May 9, 9:00 PM)
Low72 °F (May 15, 6:00 AM)47% (May 22, 12:30 PM)29.74 "Hg (May 9, 5:00 PM)
Average83 °F83%29.85 "Hg
* Reported May 9 5:00 PM — May 24 5:00 PM, Makassar, Weather by CustomWeather, © 2015

Note: Actual official high and low records may vary slightly from our data, if they occured in-between our weather recording intervals... More about our weather records

Advertising

Makassar weather history for previous 24 hours

 ConditionsComfort  
Time TempWeatherWind HumidityBarometerVisibility
5:00 PM
Sun, May 24
88 °FScattered clouds.8 mph70%29.83 "Hg6 mi
4:30 PM90 °FPassing clouds.10 mph67%29.80 "Hg6 mi
4:00 PM90 °FPassing clouds.7 mph67%29.80 "Hg6 mi
3:30 PM90 °FPassing clouds.8 mph67%29.80 "HgN/A
3:00 PM90 °FPassing clouds.10 mph63%29.80 "HgN/A
2:30 PM90 °FPassing clouds.10 mph63%29.80 "HgN/A
2:00 PM91 °FPassing clouds.10 mph59%29.83 "HgN/A
1:30 PM91 °FPassing clouds.9 mph59%29.83 "HgN/A
1:00 PM93 °FPassing clouds.8 mph56%29.83 "HgN/A
12:30 PM93 °FPassing clouds.6 mph49%29.83 "HgN/A
12:00 PM93 °FPassing clouds.6 mph49%29.86 "HgN/A
11:30 AM91 °FPassing clouds.8 mph52%29.86 "HgN/A
11:00 AM91 °FPassing clouds.9 mph52%29.86 "HgN/A
10:30 AM91 °FPassing clouds.9 mph56%29.86 "HgN/A
10:00 AM90 °FPassing clouds.10 mph59%29.89 "HgN/A
9:00 AM86 °FPassing clouds.1 mph75%29.89 "HgN/A
8:00 AM82 °FPassing clouds.2 mph84%29.86 "HgN/A
7:30 AM79 °FPassing clouds.3 mph94%29.86 "HgN/A
7:00 AM75 °FPassing clouds.5 mph100%29.86 "HgN/A
6:30 AM73 °FPassing clouds.6 mph100%29.86 "Hg6 mi
6:00 AM75 °FPassing clouds.7 mph100%29.83 "Hg6 mi
4:30 AM73 °FPassing clouds.6 mph100%29.83 "Hg5 mi
4:00 AM73 °FPassing clouds.3 mph100%29.83 "Hg5 mi
3:00 AM73 °FPassing clouds.3 mph100%29.83 "Hg5 mi
2:30 AM73 °FPassing clouds.6 mph100%29.86 "Hg5 mi
2:00 AM75 °FPassing clouds.2 mph100%29.86 "Hg5 mi
1:30 AM75 °FPassing clouds.1 mph100%29.86 "Hg5 mi
1:00 AM75 °FPassing clouds.3 mph100%29.86 "Hg5 mi
12:30 AM75 °FPassing clouds.5 mph100%29.86 "Hg5 mi
12:00 AM75 °FPassing clouds.2 mph100%29.89 "Hg5 mi
11:30 PM
Sat, May 23
77 °FPassing clouds.2 mph100%29.89 "Hg5 mi
11:00 PM77 °FPassing clouds.5 mph100%29.89 "Hg5 mi
10:30 PM79 °FPassing clouds.1 mph100%29.89 "Hg5 mi
10:00 PM79 °FPassing clouds.2 mph100%29.89 "Hg5 mi
9:30 PM79 °FPassing clouds.2 mph100%29.89 "Hg5 mi
9:00 PM79 °FPassing clouds.3 mph100%29.89 "Hg5 mi
8:30 PM81 °FPassing clouds.2 mph100%29.86 "Hg5 mi
8:00 PM81 °FPassing clouds.No wind94%29.86 "Hg5 mi
7:30 PM82 °FPassing clouds.1 mph89%29.86 "Hg5 mi
7:00 PM84 °FPassing clouds.3 mph79%29.86 "Hg5 mi
6:30 PM84 °FPassing clouds.3 mph79%29.83 "Hg6 mi
6:00 PM86 °FPassing clouds.6 mph70%29.83 "HgN/A
Weather by CustomWeather, © 2015

See weather overviewHow to use our weather pages